Location: Buckenweiler
(49.0667°N, 10.2500°E)
Time: 09:11:23
(UTC+00:00)

Timation 2 Rocket - Pass Details

Date: 18 January 2026
Orbit: 907 x 1072 km, 70.0° (Epoch: 19 February)

Event Time Altitude Azimuth Distance (km) Brightness Sun altitude
Rises 04:42:24 0° 206° (SSW) 3,779 6.9 -22.9°
Reaches altitude 10° 04:45:02 10° 206° (SSW) 2,809 6.2 -22.5°
Maximum altitude 04:51:37 87° 117° (ESE) 1,001 4.0 -21.4°
Drops below altitude 10° 04:57:57 10° 31° (NNE) 2,708 6.6 -20.4°
Sets 05:00:26 0° 31° (NNE) 3,635 7.3 -20.0°
